Weather in Vyatskie Polyani

Russia / Kirov Oblast     56°13′22″N   51°04′29″E
temp.,
°C
wind,
m/s
gust,
m/s
humid.,
%
clouds,
%
prec.,
mm/h
press.,
hPa
HPBL,
m
28 february, sun
sun2800:00−12n499598 0.3 1002349
03:00−13n499597 0.5 1004352
06:00−14nne4895100 0.3 1006391
09:00−15n579398 0.4 1007412
12:00−13n5792100 0.1 1008466
15:00−13n4792100 0.1 1010514
18:00−16n3796100 0.1 1012145
21:00−19nnw349992 0.1 101574
1 march, mon
mon100:00−21nnw349830 0.0 101652
03:00−23nnw339826 0.0 101838
06:00−24nnw339941 0.0 102043
09:00−20nnw249745 0.0 1021161
12:00−16nw349248 0.0 1021284
15:00−16wnw349349 0.0 1021201
18:00−19wsw23963 0.0 101920
21:00−19ssw339721 0.0 101854
2 march, tue
tue200:00−18ssw4109691 0.0 1015230
03:00−15ssw6129595 0.0 1012289
06:00−13ssw71394100 0.4 1007368
09:00−11ssw71294100 1.3 1004454
12:00−8ssw61194100 1.0 1001503
15:00−5s51095100 2.0 1000506
18:00−5s51096100 0.9 998394
21:00−3ssw4797100 1.8 998283
3 march, wed
wed300:00−3w2698100 0.4 997178
03:00−6nw61094100 0.6 998333
06:00−8nnw5995100 0.1 998265
09:00−7nnw5995100 0.1 1000352
12:00−4nnw5892100 0.1 1001605
15:00−3nnw5994100 0.3 1003718
18:00−5nnw61290100 0.3 1004670
21:00−10nw4119273 0.3 1007234
4 march, thu
thu400:00−9nw4109560 0.1 1007328
03:00−11nw4109579 0.1 1009224
06:00−14wnw489791 0.1 1010159
09:00−12wnw479592 0.1 1011260
12:00−9w469380 0.0 1011286
15:00−8sw489373 0.0 1010382
18:00−10ssw5129487 0.0 1008288
21:00−7sw7149293 0.1 1006526